Wolverhampton

United Kingdom     52˚35′39″N   2˚07′24″W
temp.,
°C
wind,
m/s
gust,
m/s
humid.,
%
clouds,
%
prec.,
mm/h
press.,
hPa
HPBL,
m
28 november, sat
sat2800:00+4˚e368948 0.0 1017289
03:00+5˚ene369391 0.0 1016227
06:00+6˚e489695 0.6 1017326
09:00+6˚e4797100 4.3 1018335
12:00+7˚e3694100 5.5 1019310
15:00+8˚e3591100 0.0 1019252
18:00+7˚ene2495100 0.0 1021154
21:00+6˚ene229795 0.0 102273
29 november, sun
sun2900:00+5˚ene229794 0.0 102458
03:00+5˚e119557 0.0 102422
06:00+4˚e119350 0.0 102522
09:00+5˚ene009176 0.0 102622
12:00+8˚se117671 0.0 1026159
15:00+8˚wsw118115 0.0 102622
18:00+6˚w11887 0.0 102722
21:00+5˚wnw12920 0.0 102723
30 november, mon
mon3000:00+5˚w119518 0.0 102722
03:00+5˚wsw129585 0.0 102723
06:00+5˚sw229581 0.0 102634
09:00+5˚wsw359455 0.0 1026122
12:00+9˚wsw5108878 0.0 1026555
15:00+8˚w41186100 0.0 1025566
18:00+8˚w51284100 0.0 1024539
21:00+8˚w41291100 0.1 1023563
1 december, tue
tue100:00+9˚wnw41193100 0.6 1024527
03:00+9˚nw31098100 0.2 1024485
06:00+7˚e2376100 0.3 1024136
09:00+8˚s0175100 0.0 102560
12:00+9˚w1284100 0.0 1025221
15:00+8˚wsw1297100 0.3 1024124
18:00+9˚wnw2397100 0.3 1025105
21:00+8˚wsw129697 0.0 102422
2 december, wed
wed200:00+7˚w229488 0.0 102343
03:00+6˚wsw239120 0.0 102263
06:00+6˚sw359522 0.0 1020126
09:00+6˚sw369481 0.0 1020178
12:00+7˚sw359176 0.0 1018196
15:00+8˚w139275 0.1 1016151
18:00+7˚nw149085 0.1 1016234
21:00+4˚wnw128861 0.0 101565